GLOBALSTAR M065         
1 31571U 07020A   19264.84223257 -.00000100  00000-0  18915-4 0  9991
2 31571  51.9900 125.4714 0000651 113.4370 327.0786 12.62266436569122
GLOBALSTAR M069         
1 31573U 07020C   19264.86913233 -.00000104  00000-0 -39241-5 0  9996
2 31573  51.9947  81.3995 0000733 122.0181  21.4781 12.62267554569866
GLOBALSTAR M072         
1 31574U 07020D   19264.31201747 -.00000079  00000-0  13847-3 0  9999
2 31574  52.0078 177.4842 0001303  64.6985  85.2466 12.62264803568297
GLOBALSTAR M071         
1 31576U 07020F   19264.80727775 -.00000112  00000-0 -47592-4 0  9993
2 31576  52.0060  85.4018 0001383 134.5038 327.4597 12.62269153569848